Cadillac, MI

12:11 PM EDT on October 17, 2019 (GMT -0400)
Wexford County

Weather History for KCAD - September, 2019

Change the Weather History Date:

Wednesday, September 18, 2019

  Actual Average Record
Temperature  
Mean Temperature 68 °F -  
Max Temperature 81 °F 66 °F 88 °F (1955)
Min Temperature 55 °F 44 °F 29 °F (1951)
Cooling Degree Days 3    
Growing Degree Days 18 (Base 50)    
Moisture  
Dew Point 55 °F    
Average Humidity 64    
Maximum Humidity 91    
Minimum Humidity 38    
Precipitation  
Precipitation 0.00 in - - ()
Sea Level Pressure  
Sea Level Pressure 30.16 in    
Wind  
Wind Speed 4 mph (South)    
Max Wind Speed 13 mph    
Max Gust Speed 18 mph    
Visibility 10 miles    
Events      
Averages and records for this station are not official NWS values.
T = Trace of Precipitation, MM = Missing Value Source: NWS Daily Summary

Daily Weather History Graph

Daily Weather History Graph

Search for Another Location

Airport or City:

Astronomy

Sep. 18, 2019 Rise Set
Actual Time 7:23 AM EDT 7:46 PM EDT
Civil Twilight 6:54 AM EDT 8:15 PM EDT
Nautical Twilight 6:20 AM EDT 8:50 PM EDT
Astronomical Twilight 5:45 AM EDT 9:25 PM EDT
Moon 10:11 PM EDT (9/18) 11:34 AM EDT (9/18)
Length of Visible Light 13h 21m
Length of Day
12h 23m
Waning Gibbous, 82% of the Moon is Illuminated
Sep 18
Waning Gibbous
Sep 21
Last Quarter
Sep 28
New
Oct 5
First Quarter
Oct 13
Full

Hourly Weather History & Observations

Time (EDT) Temp. Heat Index Dew Point Humidity Pressure Visibility Wind Dir Wind Speed Gust Speed Precip Events Conditions
12:18 AM 57.6 °F - 54.9 °F 91% 30.18 in 10.0 mi Calm Calm - N/A   Clear
12:36 AM 56.1 °F - 53.4 °F 91% 30.17 in 2.5 mi Calm Calm - N/A   Clear
12:55 AM 56.8 °F - 54.1 °F 91% 30.17 in 1.2 mi Calm Calm - N/A   Mist
1:15 AM 55.6 °F - 52.9 °F 91% 30.17 in 7.0 mi Calm Calm - N/A   Clear
1:39 AM 57.9 °F - 55.2 °F 91% 30.18 in 10.0 mi Calm Calm - N/A   Clear
1:57 AM 55.4 °F - 52.7 °F 91% 30.18 in 10.0 mi Calm Calm - N/A   Clear
2:15 AM 55.9 °F - 53.2 °F 91% 30.18 in 10.0 mi Calm Calm - N/A   Clear
2:35 AM 56.7 °F - 54.0 °F 91% 30.18 in 10.0 mi Calm Calm - N/A   Clear
2:55 AM 55.4 °F - 52.7 °F 91% 30.18 in 10.0 mi Calm Calm - N/A   Clear
3:18 AM 56.3 °F - 53.6 °F 91% 30.18 in 10.0 mi Calm Calm - N/A   Clear
3:36 AM 59.9 °F - 57.2 °F 91% 30.17 in 10.0 mi South 4.6 mph - N/A   Clear
3:55 AM 59.2 °F - 56.5 °F 91% 30.17 in 7.0 mi Calm Calm - N/A   Clear
3:56 AM 59.2 °F - 56.5 °F 91% 30.17 in 7.0 mi Calm Calm - N/A   Clear
4:15 AM 56.8 °F - 54.1 °F 91% 30.17 in 1.5 mi Calm Calm - N/A   Mist
4:39 AM 57.6 °F - 54.9 °F 91% 30.17 in 1.0 mi Calm Calm - N/A   Mist
4:57 AM 60.4 °F - 57.7 °F 91% 30.17 in 10.0 mi South 4.6 mph - N/A   Clear
5:16 AM 61.7 °F - 59.0 °F 91% 30.17 in 10.0 mi South 3.5 mph - N/A   Clear
5:35 AM 61.9 °F - 59.0 °F 90% 30.17 in 10.0 mi SSE 4.6 mph - N/A   Clear
5:55 AM 61.7 °F - 59.0 °F 91% 30.17 in 10.0 mi South 4.6 mph - N/A   Clear
6:00 AM 61.7 °F - 59.0 °F 91% 30.17 in 10.0 mi South 4.6 mph - N/A   Clear
6:18 AM 61.7 °F - 59.0 °F 91% 30.17 in 10.0 mi South 4.6 mph - N/A   Clear
6:36 AM 61.7 °F - 59.0 °F 91% 30.17 in 10.0 mi Calm Calm - N/A   Clear
6:55 AM 61.2 °F - 58.5 °F 91% 30.17 in 10.0 mi SSE 3.5 mph - N/A   Clear
7:15 AM 60.8 °F - 58.1 °F 91% 30.17 in 10.0 mi South 4.6 mph - N/A   Clear
7:39 AM 61.0 °F - 58.3 °F 91% 30.17 in 10.0 mi Calm Calm - N/A   Clear
7:57 AM 61.7 °F - 58.8 °F 90% 30.17 in 10.0 mi SSE 4.6 mph - N/A   Clear
8:15 AM 62.4 °F - 57.6 °F 84% 30.17 in 10.0 mi Calm Calm - N/A   Clear
8:35 AM 63.9 °F - 55.4 °F 74% 30.17 in 10.0 mi South 4.6 mph - N/A   Clear
8:36 AM 63.9 °F - 55.4 °F 74% 30.17 in 10.0 mi South 4.6 mph - N/A   Clear
8:55 AM 64.9 °F - 54.9 °F 70% 30.17 in 10.0 mi SSE 6.9 mph - N/A   Clear
8:59 AM 65.3 °F - 54.3 °F 68% 30.17 in 10.0 mi SSE 8.1 mph - N/A   Clear
9:17 AM 66.7 °F - 54.5 °F 65% 30.17 in 10.0 mi South 4.6 mph - N/A   Clear
9:35 AM 67.3 °F - 54.7 °F 64% 30.18 in 10.0 mi South 9.2 mph - N/A   Clear
9:55 AM 68.2 °F - 55.8 °F 64% 30.18 in 10.0 mi South 10.4 mph - N/A   Clear
9:56 AM 68.4 °F - 55.8 °F 64% 30.18 in 10.0 mi South 9.2 mph - N/A   Clear
10:15 AM 69.4 °F - 55.2 °F 60% 30.19 in 10.0 mi South 8.1 mph - N/A   Clear
10:20 AM 69.8 °F - 55.0 °F 59% 30.18 in 10.0 mi South 8.1 mph - N/A   Clear
10:38 AM 71.4 °F - 52.7 °F 52% 30.19 in 10.0 mi South 10.4 mph - N/A   Clear
10:56 AM 72.5 °F - 52.7 °F 50% 30.18 in 10.0 mi South 10.4 mph - N/A   Clear
11:15 AM 73.8 °F - 52.5 °F 47% 30.19 in 10.0 mi South 9.2 mph - N/A   Clear
11:35 AM 74.8 °F - 51.6 °F 44% 30.19 in 10.0 mi South 10.4 mph - N/A   Clear
11:36 AM 74.7 °F - 51.6 °F 44% 30.19 in 10.0 mi South 8.1 mph - N/A   Clear
11:59 AM 76.1 °F - 52.9 °F 44% 30.19 in 10.0 mi SSW 10.4 mph - N/A   Clear
12:17 PM 76.6 °F - 52.3 °F 43% 30.19 in 10.0 mi South 11.5 mph 16.1 mph N/A   Clear
12:36 PM 77.2 °F - 53.2 °F 43% 30.19 in 10.0 mi SSE 10.4 mph - N/A   Clear
12:55 PM 78.1 °F - 52.9 °F 41% 30.19 in 10.0 mi SSE 9.2 mph - N/A   Clear
1:15 PM 78.8 °F - 52.2 °F 39% 30.19 in 10.0 mi South 10.4 mph - N/A   Clear
1:20 PM 79.0 °F - 52.3 °F 39% 30.19 in 10.0 mi South 10.4 mph - N/A   Clear
1:38 PM 79.0 °F - 51.6 °F 38% 30.19 in 10.0 mi South 11.5 mph 16.1 mph N/A   Clear
1:56 PM 79.3 °F - 51.6 °F 38% 30.18 in 10.0 mi South 11.5 mph 16.1 mph N/A   Clear
2:15 PM 79.9 °F - 52.7 °F 39% 30.18 in 10.0 mi South 11.5 mph - N/A   Clear
2:35 PM 79.9 °F - 53.8 °F 40% 30.17 in 10.0 mi South 10.4 mph 16.1 mph N/A   Clear
2:59 PM 80.4 °F 80.2 °F 53.8 °F 40% 30.17 in 10.0 mi South 11.5 mph 16.1 mph N/A   Clear
3:17 PM 80.6 °F 80.5 °F 55.6 °F 42% 30.16 in 10.0 mi South 11.5 mph - N/A   Clear
3:35 PM 81.0 °F 80.8 °F 55.9 °F 42% 30.15 in 10.0 mi South 10.4 mph 18.4 mph N/A   Clear
3:55 PM 81.1 °F 80.9 °F 55.2 °F 41% 30.14 in 10.0 mi South 8.1 mph 18.4 mph N/A   Clear
4:15 PM 80.6 °F 80.4 °F 54.9 °F 41% 30.13 in 10.0 mi South 11.5 mph 17.3 mph N/A   Clear
4:19 PM 80.4 °F 80.3 °F 54.7 °F 41% 30.13 in 10.0 mi South 11.5 mph 17.3 mph N/A   Clear
4:38 PM 80.4 °F 80.3 °F 54.5 °F 41% 30.13 in 10.0 mi South 12.7 mph 17.3 mph N/A   Clear
4:56 PM 80.1 °F 80.1 °F 54.1 °F 41% 30.13 in 10.0 mi South 11.5 mph - N/A   Clear
5:15 PM 79.9 °F - 55.0 °F 42% 30.13 in 10.0 mi South 8.1 mph - N/A   Clear
5:35 PM 79.0 °F - 55.9 °F 45% 30.12 in 10.0 mi South 8.1 mph 16.1 mph N/A   Clear
5:36 PM 78.8 °F - 56.1 °F 46% 30.12 in 10.0 mi South 8.1 mph 16.1 mph N/A   Clear
5:59 PM 78.1 °F - 57.2 °F 49% 30.11 in 10.0 mi SSE 11.5 mph - N/A   Clear
6:17 PM 78.3 °F - 56.8 °F 48% 30.11 in 10.0 mi South 9.2 mph 16.1 mph N/A   Clear
6:35 PM 78.1 °F - 56.1 °F 47% 30.11 in 10.0 mi South 10.4 mph - N/A   Clear
6:55 PM 76.6 °F - 55.0 °F 47% 30.11 in 10.0 mi South 11.5 mph 18.4 mph N/A   Clear
6:56 PM 76.5 °F - 55.0 °F 47% 30.11 in 10.0 mi South 10.4 mph 18.4 mph N/A   Clear
7:15 PM 74.8 °F - 55.6 °F 51% 30.12 in 10.0 mi South 9.2 mph - N/A   Clear
7:20 PM 74.3 °F - 55.9 °F 53% 30.12 in 10.0 mi SSE 6.9 mph - N/A   Clear
7:38 PM 73.6 °F - 56.3 °F 55% 30.12 in 10.0 mi SSE 8.1 mph - N/A   Clear
7:56 PM 72.5 °F - 56.8 °F 58% 30.12 in 10.0 mi SSE 6.9 mph - N/A   Clear
8:15 PM 71.6 °F - 57.2 °F 60% 30.12 in 10.0 mi SE 6.9 mph - N/A   Clear
8:35 PM 71.2 °F - 57.6 °F 62% 30.13 in 10.0 mi SSE 8.1 mph - N/A   Clear
8:36 PM 71.2 °F - 57.6 °F 62% 30.13 in 10.0 mi SSE 8.1 mph - N/A   Clear
8:59 PM 71.2 °F - 56.7 °F 60% 30.13 in 10.0 mi SSE 6.9 mph - N/A   Clear
9:17 PM 70.9 °F - 56.5 °F 60% 30.13 in 10.0 mi SSE 6.9 mph - N/A   Clear
9:35 PM 70.5 °F - 56.7 °F 61% 30.12 in 10.0 mi SSE 6.9 mph - N/A   Clear
9:55 PM 70.0 °F - 56.7 °F 63% 30.12 in 10.0 mi SSE 5.8 mph - N/A   Clear
10:15 PM 68.2 °F - 57.4 °F 68% 30.13 in 10.0 mi SE 5.8 mph - N/A   Clear
10:20 PM 68.0 °F - 57.4 °F 69% 30.13 in 10.0 mi SE 5.8 mph - N/A   Clear
10:38 PM 69.6 °F - 56.5 °F 63% 30.12 in 10.0 mi SSE 10.4 mph - N/A   Clear
10:56 PM 70.0 °F - 55.4 °F 60% 30.12 in 10.0 mi SSE 8.1 mph - N/A   Clear
11:15 PM 69.4 °F - 55.4 °F 61% 30.13 in 10.0 mi South 5.8 mph - N/A   Clear
11:35 PM 69.1 °F - 54.9 °F 60% 30.13 in 10.0 mi South 5.8 mph - N/A   Clear
11:59 PM 67.6 °F - 54.9 °F 64% 30.13 in 10.0 mi South 6.9 mph - N/A   Clear